Weather observations for the past three days for
Winchester Regional
Imperial (Metric)
Date Time (edt) Wind (mph) Vis. (mi.) Weather Sky Cond. Temperature (ºF) Relative Humidity Wind Chill (°F) Heat Index (°F) Pressure Precipitation (in)
Air Dwpt 6 hour altimeter (in) sea level (mb) 1 hr 3 hr 6 hr
Max. Min.
19 13:35 Calm 10.00 Partly Cloudy SCT050 SCT085 78.8 57.2 48% 80 30.15 0.0
19 13:15 E 7 10.00 Partly Cloudy SCT050 SCT095 82.4 57.2 42% 82 30.15 0.0
19 12:55 E 7 10.00 Partly Cloudy SCT048 SCT075 SCT085 78.8 57.2 48% 80 30.15 0.0
19 12:35 N 3 10.00 Fair CLR 78.8 55.4 45% 79 30.15 0.0
19 12:15 Calm 10.00 Fair CLR 78.8 55.4 45% 79 30.15 0.0
19 11:55 Calm 10.00 Fair CLR 77 55.4 47% 79 30.15 0.0
19 11:15 S 3 10.00 Partly Cloudy SCT085 77 55.4 47% 79 30.16 0.0
19 10:55 SE 3 10.00 Mostly Cloudy BKN085 75.2 55.4 50% 78 30.16 0.0
19 10:35 E 3 10.00 Partly Cloudy SCT085 73.4 55.4 53% 30.16 0.0
19 10:15 E 6 10.00 Fair CLR 73.4 55.4 53% 30.16 0.0
19 09:55 NE 6 10.00 Fair CLR 73.4 55.4 53% 30.16 0.0
19 09:35 NE 5 10.00 Partly Cloudy SCT075 71.6 55.4 57% 30.16 0.0
19 09:15 N 5 10.00 Partly Cloudy SCT075 71.6 55.4 57% 30.16 0.0
19 08:55 N 5 10.00 Fair CLR 69.8 55.4 60% 30.16 0.0
19 08:35 N 3 10.00 Fair CLR 69.8 55.4 60% 30.16 0.0
19 08:15 NE 3 10.00 Partly Cloudy SCT095 68 53.6 60% 30.15 0.0
19 07:55 N 5 10.00 Partly Cloudy SCT095 68 53.6 60% 30.15 0.0
19 07:35 Calm 10.00 Mostly Cloudy BKN095 66.2 53.6 64% 30.14 0.0
19 07:15 Calm 10.00 Fair CLR 62.6 53.6 73% 30.14 0.0
19 06:55 Calm 10.00 Partly Cloudy SCT090 62.6 53.6 73% 30.13 0.0
19 06:35 NW 3 10.00 Partly Cloudy SCT090 62.6 53.6 73% 30.12 0.0
19 06:15 Calm 10.00 Partly Cloudy SCT090 62.6 53.6 73% 30.11 0.0
19 05:55 Calm 10.00 Partly Cloudy SCT075 SCT090 62.6 53.6 73% 30.1 0.0
19 05:35 Calm 10.00 Mostly Cloudy BKN075 BKN090 64.4 53.6 68% 30.09 0.0
19 05:15 Calm 10.00 Overcast SCT075 OVC090 62.6 53.6 73% 30.09 0.0
19 04:55 NW 3 10.00 Partly Cloudy SCT065 SCT090 64.4 53.6 68% 30.08 0.0
19 04:35 NW 3 10.00 Partly Cloudy SCT065 SCT090 64.4 53.6 68% 30.08 0.0
19 04:15 NW 3 10.00 Partly Cloudy SCT090 64.4 53.6 68% 30.07 0.0
19 03:55 Calm 10.00 Partly Cloudy SCT090 66.2 53.6 64% 30.07 0.0
19 03:35 NW 3 10.00 Mostly Cloudy SCT070 BKN090 68 53.6 60% 30.07 0.0
19 03:15 NW 3 10.00 Mostly Cloudy BKN090 68 53.6 60% 30.07 0.0
19 02:55 NW 3 10.00 Mostly Cloudy BKN090 68 53.6 60% 30.06 0.0
19 02:35 NW 3 10.00 Partly Cloudy SCT090 69.8 53.6 57% 30.07 0.0
19 02:15 NW 5 10.00 Partly Cloudy SCT090 69.8 53.6 57% 30.06 0.0
19 01:55 N 5 10.00 Mostly Cloudy BKN090 69.8 53.6 57% 30.06 0.0
19 01:35 N 5 10.00 Mostly Cloudy SCT080 BKN090 71.6 53.6 53% 30.06 0.0
19 01:15 N 5 10.00 Mostly Cloudy BKN080 71.6 53.6 53% 30.06 0.0
19 00:55 N 5 10.00 Mostly Cloudy BKN080 71.6 55.4 57% 30.06 0.0
19 00:35 NW 3 10.00 Mostly Cloudy BKN080 71.6 55.4 57% 30.06 0.0
19 00:15 NW 3 10.00 Partly Cloudy SCT065 71.6 57.2 61% 30.05 0.0
18 23:55 N 3 10.00 Partly Cloudy SCT065 71.6 59 65% 30.04 0.0
18 23:35 NW 3 10.00 Partly Cloudy SCT065 71.6 60.8 69% 30.04 0.0
18 23:15 Calm 10.00 Partly Cloudy SCT070 69.8 62.6 78% 30.04 0.0
18 22:55 NW 3 10.00 Partly Cloudy SCT070 69.8 62.6 78% 30.03 0.0
18 22:35 Calm 10.00 Fair CLR 69.8 62.6 78% 30.03 0.0
18 22:15 Calm 10.00 Partly Cloudy SCT100 71.6 62.6 73% 30.02 0.0
18 21:55 Calm 10.00 Mostly Cloudy SCT070 SCT085 BKN100 71.6 64.4 78% 30.02 0.0
18 21:35 Calm 10.00 Overcast BKN075 OVC080 73.4 62.6 69% 30.02 0.0
18 21:15 Calm 10.00 Overcast BKN060 BKN075 OVC085 73.4 64.4 74% 30.01 0.0
18 20:55 Calm 10.00 Overcast OVC060 73.4 64.4 74% 30 0.0
18 20:35 Calm 10.00 Mostly Cloudy BKN060 75.2 64.4 69% 77 29.99 0.0
18 20:15 Calm 10.00 Fair CLR 77 62.6 61% 79 29.98 0.0
18 19:55 SE 3 10.00 Mostly Cloudy SCT055 SCT065 BKN100 78.8 62.6 58% 80 29.98 0.0
18 19:35 SE 3 10.00 Overcast SCT045 OVC055 78.8 62.6 58% 80 29.97 0.0
18 19:15 Calm 10.00 Overcast BKN045 OVC060 78.8 62.6 58% 80 29.97 0.0
18 18:55 E 5 10.00 Overcast SCT047 BKN050 OVC085 78.8 62.6 58% 80 29.96 0.0
18 18:35 SE 6 10.00 Overcast SCT050 OVC085 78.8 62.6 58% 80 29.96 0.0
18 18:15 E 5 10.00 Overcast BKN050 BKN070 OVC085 78.8 62.6 58% 80 29.96 0.0
18 17:55 E 7 10.00 Overcast BKN050 BKN055 OVC070 80.6 62.6 54% 82 29.95 0.0
18 17:35 E 5 10.00 Overcast BKN050 OVC070 80.6 62.6 54% 82 29.95 0.0
18 17:15 SE 6 10.00 Overcast BKN050 BKN065 OVC090 80.6 60.8 51% 81 29.95 0.0
18 16:55 E 6 10.00 Overcast BKN050 BKN070 OVC090 80.6 60.8 51% 81 29.95 0.0
18 16:35 Calm 10.00 Mostly Cloudy BKN050 80.6 60.8 51% 81 29.96 0.0
18 16:15 E 5 10.00 Partly Cloudy SCT050 82.4 60.8 48% 83 29.96 0.0
18 15:55 E 3 10.00 Mostly Cloudy BKN050 BKN120 80.6 60.8 51% 81 29.96 0.0
18 15:35 E 3 10.00 Mostly Cloudy SCT048 BKN120 80.6 60.8 51% 81 29.97 0.0
18 15:15 E 3 10.00 Partly Cloudy SCT048 SCT110 80.6 60.8 51% 81 29.98 0.0
18 14:55 Calm 10.00 Partly Cloudy SCT120 80.6 60.8 51% 81 29.99 0.0
18 14:35 NE 5 10.00 Fair CLR 80.6 60.8 51% 81 29.99 0.0
18 14:15 NW 5 10.00 Partly Cloudy SCT110 78.8 60.8 54% 80 29.99 0.0
18 13:55 NW 7 10.00 Partly Cloudy SCT110 77 60.8 57% 79 30 0.0
18 13:35 NW 8 10.00 Mostly Cloudy BKN120 78.8 59 51% 80 30 0.0
18 13:15 N 5 10.00 Mostly Cloudy BKN120 78.8 59 51% 80 30 0.0
18 12:55 N 6 10.00 Partly Cloudy SCT070 SCT080 SCT110 78.8 60.8 54% 80 30.01 0.0
18 12:35 NW 8 10.00 Partly Cloudy SCT070 SCT110 78.8 62.6 58% 80 30 0.0
18 12:15 N 7 10.00 Partly Cloudy SCT110 78.8 62.6 58% 80 29.99 0.0
18 11:55 Calm 10.00 Partly Cloudy SCT110 77 62.6 61% 79 30 0.0
18 11:35 N 3 10.00 Overcast OVC110 75.2 62.6 65% 77 30 0.0
18 11:15 N 6 10.00 Mostly Cloudy BKN110 75.2 62.6 65% 77 30 0.0
18 10:55 NW 7 10.00 Mostly Cloudy SCT065 BKN110 75.2 62.6 65% 77 30 0.0
18 10:35 N 3 10.00 Overcast OVC110 73.4 62.6 69% 30 0.0
18 10:15 NW 7 10.00 Mostly Cloudy BKN120 73.4 62.6 69% 30 0.0
18 09:55 N 5 10.00 Mostly Cloudy BKN120 73.4 62.6 69% 30 0.0
18 09:35 NW 5 10.00 Mostly Cloudy BKN120 71.6 64.4 78% 30 0.0
18 09:15 N 5 10.00 Partly Cloudy SCT120 71.6 62.6 73% 29.99 0.0
18 08:55 Calm 10.00 Mostly Cloudy BKN110 71.6 64.4 78% 30 0.0
18 08:35 Calm 10.00 Partly Cloudy SCT110 71.6 64.4 78% 29.99 0.0
18 08:15 Calm 10.00 Fair CLR 69.8 64.4 83% 29.97 0.0
18 07:55 NE 3 10.00 Fair CLR 69.8 64.4 83% 29.96 0.0
18 07:35 Calm 10.00 Fair CLR 69.8 64.4 83% 29.96 0.0
18 07:15 Calm 10.00 Fair CLR 69.8 64.4 83% 29.95 0.0
18 06:55 Calm 10.00 Fair CLR 69.8 64.4 83% 29.94 0.0
18 06:35 Calm 10.00 Fair CLR 69.8 64.4 83% 29.93 0.0
18 06:15 Calm 10.00 Fair CLR 69.8 62.6 78% 29.92 0.0
18 05:55 Calm 10.00 Fair CLR 69.8 62.6 78% 29.92 0.0
18 05:35 NW 6 10.00 Fair CLR 71.6 62.6 73% 29.91 0.0
18 05:15 N 3 10.00 Fair CLR 69.8 64.4 83% 29.91 0.0
18 04:55 N 3 10.00 Fair CLR 71.6 64.4 78% 29.9 0.0
18 04:35 N 3 10.00 Partly Cloudy SCT110 69.8 64.4 83% 29.9 0.0
18 04:15 Calm 10.00 Partly Cloudy SCT090 SCT120 69.8 64.4 83% 29.9 0.0
18 03:55 Calm 10.00 Partly Cloudy SCT090 SCT120 69.8 64.4 83% 29.9 0.0
18 03:35 Calm 10.00 Partly Cloudy SCT090 SCT120 69.8 66.2 88% 29.89 0.0
18 03:15 Calm 10.00 Fair CLR 69.8 66.2 88% 29.89 0.0
18 02:55 Calm 10.00 Partly Cloudy SCT090 69.8 66.2 88% 29.89 0.0
18 02:35 Calm 10.00 Partly Cloudy SCT090 SCT120 69.8 66.2 88% 29.89 0.0
18 02:15 Calm 10.00 Overcast BKN100 OVC120 71.6 64.4 78% 29.88 0.0
18 01:55 Calm 10.00 Overcast OVC090 71.6 64.4 78% 29.89 0.0
18 01:35 Calm 10.00 Overcast OVC090 71.6 64.4 78% 29.89 0.0
18 01:15 Calm 10.00 Overcast SCT090 OVC110 73.4 62.6 69% 29.89 0.0
18 00:55 Calm 10.00 Overcast OVC110 73.4 62.6 69% 29.89 0.0
18 00:35 W 3 10.00 Overcast OVC100 73.4 62.6 69% 29.9 0.0
18 00:15 SW 3 10.00 Overcast OVC100 71.6 64.4 78% 29.9 0.0
17 23:55 Calm 10.00 Overcast OVC100 73.4 62.6 69% 29.9 0.0
17 23:35 W 5 10.00 Partly Cloudy SCT100 71.6 62.6 73% 29.91 0.0
17 23:15 Calm 10.00 Mostly Cloudy SCT060 SCT075 BKN110 73.4 62.6 69% 29.91 0.0
17 22:55 N 5 10.00 Mostly Cloudy SCT060 BKN075 BKN110 73.4 62.6 69% 29.91 0.0
17 22:35 N 3 10.00 Mostly Cloudy BKN050 BKN060 BKN085 73.4 62.6 69% 29.92 0.0
17 22:15 NW 7 10.00 Overcast SCT049 BKN055 OVC080 73.4 64.4 74% 29.92 0.0
17 21:55 N 7 10.00 Light Rain SCT028 BKN080 OVC095 75.2 66.2 74% 77 29.9 0.0
17 21:35 Calm 10.00 Mostly Cloudy SCT034 SCT048 BKN065 77 71.6 83% 78 29.87 0.0
17 21:15 S 3 10.00 Mostly Cloudy SCT060 BKN075 BKN100 77 71.6 83% 78 29.86 0.0
17 20:55 SE 3 10.00 Overcast SCT060 SCT070 OVC100 77 71.6 83% 78 29.86 0.0
17 20:35 Calm 10.00 Overcast BKN100 OVC120 78.8 71.6 79% 82 29.86 0.0
17 20:15 SW 3 10.00 Mostly Cloudy BKN120 78.8 71.6 79% 82 29.85 0.0
17 19:55 SW 5 10.00 Partly Cloudy SCT110 78.8 71.6 79% 82 29.84 0.0
17 19:35 S 3 10.00 Fair CLR 78.8 71.6 79% 82 29.83 0.0
17 19:15 SW 5 10.00 Fair CLR 78.8 71.6 79% 82 29.83 0.0
17 18:55 S 6 10.00 Partly Cloudy SCT100 78.8 69.8 74% 81 29.84 0.0
17 18:35 S 7 10.00 Partly Cloudy SCT100 78.8 71.6 79% 82 29.84 0.0
17 18:15 SE 7 10.00 Fair CLR 77 71.6 83% 78 29.84 0.0
17 17:55 SE 6 10.00 Partly Cloudy SCT090 SCT120 78.8 71.6 79% 82 29.84 0.0
17 17:35 Calm 10.00 Overcast BKN090 OVC110 77 71.6 83% 78 29.83 0.0
17 17:15 S 7 10.00 Mostly Cloudy SCT080 BKN110 77 71.6 83% 78 29.84 0.0
17 16:55 SE 7 10.00 Partly Cloudy SCT055 SCT085 SCT110 77 71.6 83% 78 29.85 0.0
17 16:35 SE 7 7.00 Thunderstorm Light Rain SCT045 BKN075 OVC110 75.2 71.6 89% 75 29.87 0.0
17 16:15 SW 12 G 20 5.00 Thunderstorm Rain in Vicinity SCT049 BKN065 OVC100 75.2 69.8 83% 75 29.89 0.0
17 15:55 SE 15 G 33 2.50 Heavy Rain SCT065 BKN075 OVC120 77 68 74% 79 29.84 0.0
17 15:35 SW 5 10.00 Mostly Cloudy SCT075 SCT090 BKN120 91.4 62.6 38% 92 29.82 0.0
17 15:15 NW 6 G 9 10.00 Mostly Cloudy SCT060 BKN100 BKN120 93.2 64.4 39% 95 29.82 0.0
17 14:55 Calm 10.00 Mostly Cloudy SCT070 BKN090 BKN120 91.4 62.6 38% 92 29.83 0.0
17 14:35 W 8 10.00 Mostly Cloudy BKN070 BKN080 91.4 62.6 38% 92 29.84 0.0
17 14:15 S 3 10.00 Mostly Cloudy BKN070 BKN080 91.4 62.6 38% 92 29.84 0.0
17 13:55 SW 3 10.00 Mostly Cloudy BKN065 BKN075 91.4 64.4 41% 93 29.86 0.0
17 13:35 Calm 10.00 Mostly Cloudy BKN065 BKN075 89.6 64.4 43% 91 29.87 0.0
17 13:15 W 8 10.00 Mostly Cloudy BKN055 89.6 64.4 43% 91 29.88 0.0
17 12:55 SW 7 10.00 Mostly Cloudy BKN055 89.6 64.4 43% 91 29.88 0.0
17 12:35 SW 7 10.00 Partly Cloudy SCT055 89.6 64.4 43% 91 29.88 0.0
17 12:15 SW 5 10.00 Partly Cloudy SCT055 89.6 64.4 43% 91 29.88 0.0
17 11:55 NW 5 10.00 Partly Cloudy SCT050 87.8 64.4 46% 89 29.89 0.0
17 11:35 W 8 10.00 Partly Cloudy SCT050 87.8 64.4 46% 89 29.89 0.0
17 11:15 S 5 10.00 Mostly Cloudy BKN050 89.6 64.4 43% 91 29.89 0.0
17 10:55 W 6 10.00 Partly Cloudy SCT050 89.6 64.4 43% 91 29.9 0.0
17 10:35 SW 5 10.00 Fair CLR 87.8 64.4 46% 89 29.9 0.0
17 10:15 SW 8 10.00 Fair CLR 86 64.4 49% 87 29.9 0.0
17 09:55 W 6 10.00 Fair CLR 86 64.4 49% 87 29.91 0.0
17 09:35 SW 3 10.00 Fair CLR 84.2 64.4 51% 86 29.91 0.0
17 09:15 S 5 10.00 Fair CLR 84.2 64.4 51% 86 29.92 0.0
17 08:55 S 5 10.00 Fair CLR 82.4 66.2 58% 85 29.92 0.0
17 08:35 SW 6 10.00 Fair CLR 80.6 66.2 62% 83 29.92 0.0
17 08:15 SW 7 10.00 Partly Cloudy SCT110 78.8 64.4 61% 81 29.92 0.0
17 07:35 Calm 10.00 Mostly Cloudy BKN110 75.2 66.2 74% 77 29.91 0.0
17 07:15 SW 3 10.00 Fair CLR 73.4 66.2 78% 29.91 0.0
17 06:55 Calm 10.00 Fair CLR 73.4 66.2 78% 29.9 0.0
17 06:35 Calm 10.00 Fair CLR 69.8 64.4 83% 29.89 0.0
17 06:15 Calm 10.00 Fair CLR 69.8 64.4 83% 29.88 0.0
17 05:55 Calm 10.00 Fair CLR 69.8 64.4 83% 29.88 0.0
17 05:35 Calm 10.00 Fair CLR 69.8 64.4 83% 29.88 0.0
17 05:15 Calm 10.00 Fair CLR 71.6 64.4 78% 29.87 0.0
17 04:55 Calm 10.00 Fair CLR 69.8 64.4 83% 29.87 0.0
17 04:35 Calm 10.00 Fair CLR 73.4 64.4 74% 29.86 0.0
17 04:15 Calm 10.00 Fair CLR 73.4 64.4 74% 29.86 0.0
17 03:55 W 3 10.00 Fair CLR 77 64.4 65% 79 29.86 0.0
17 03:35 W 5 10.00 Fair CLR 75.2 64.4 69% 77 29.86 0.0
17 03:15 W 3 10.00 Fair CLR 77 64.4 65% 79 29.86 0.0
17 02:55 Calm 10.00 Fair CLR 77 64.4 65% 79 29.86 0.0
17 02:35 Calm 10.00 Partly Cloudy SCT120 77 64.4 65% 79 29.85 0.0
17 02:15 W 5 10.00 Partly Cloudy SCT120 78.8 64.4 61% 81 29.86 0.0
17 01:55 Calm 10.00 Fair CLR 78.8 64.4 61% 81 29.86 0.0
17 01:35 SW 3 10.00 Fair CLR 78.8 64.4 61% 81 29.86 0.0
17 01:15 SW 5 10.00 Fair CLR 78.8 64.4 61% 81 29.86 0.0
17 00:55 SW 6 10.00 Fair CLR 80.6 64.4 58% 82 29.87 0.0
17 00:35 SW 6 10.00 Fair CLR 80.6 62.6 54% 82 29.87 0.0
17 00:15 SW 5 10.00 Partly Cloudy SCT110 80.6 60.8 51% 81 29.87 0.0
16 23:55 Calm 10.00 Mostly Cloudy BKN110 82.4 60.8 48% 83 29.87 0.0
16 23:35 SW 3 10.00 Fair CLR 82.4 60.8 48% 83 29.87 0.0
16 23:15 SW 3 10.00 Fair CLR 82.4 60.8 48% 83 29.87 0.0
16 22:55 SW 6 10.00 Partly Cloudy SCT110 82.4 60.8 48% 83 29.88 0.0
16 22:35 W 9 10.00 Mostly Cloudy BKN110 84.2 60.8 45% 84 29.87 0.0
16 22:15 SW 7 10.00 Mostly Cloudy BKN110 84.2 60.8 45% 84 29.86 0.0
16 21:55 W 6 10.00 Partly Cloudy SCT100 82.4 60.8 48% 83 29.86 0.0
16 21:35 SW 3 10.00 Fair CLR 82.4 62.6 51% 83 29.85 0.0
16 21:15 SE 5 10.00 Fair CLR 80.6 62.6 54% 82 29.84 0.0
16 20:55 W 3 10.00 Fair CLR 84.2 62.6 48% 85 29.84 0.0
16 20:35 W 5 10.00 Fair CLR 84.2 62.6 48% 85 29.83 0.0
16 20:15 W 10 G 18 10.00 Fair CLR 86 62.6 46% 87 29.84 0.0
16 19:55 W 18 G 33 10.00 Partly Cloudy SCT090 86 62.6 46% 87 29.83 0.0
16 19:35 NW 26 G 37 10.00 Partly Cloudy and Windy SCT090 SCT110 87.8 64.4 46% 89 29.83 0.0
16 19:15 W 5 10.00 Partly Cloudy SCT110 91.4 66.2 44% 94 29.81 0.0
16 18:55 S 5 10.00 Mostly Cloudy BKN110 89.6 69.8 52% 95 29.8 0.0
16 18:35 S 7 10.00 Mostly Cloudy BKN110 91.4 68 46% 96 29.79 0.0
16 18:15 SE 15 G 18 10.00 Mostly Cloudy BKN120 93.2 68 44% 98 29.78 0.0
16 17:55 S 13 G 17 10.00 Partly Cloudy SCT110 95 68 41% 100 29.77 0.0
16 17:35 S 13 G 18 10.00 Partly Cloudy SCT120 95 68 41% 100 29.77 0.0
16 17:15 S 12 G 18 10.00 Mostly Cloudy SCT100 BKN120 95 68 41% 100 29.76 0.0
16 16:55 S 6 10.00 Overcast OVC100 96.8 64.4 34% 99 29.77 0.0
16 16:35 SW 5 G 20 10.00 Partly Cloudy SCT110 98.6 59 27% 98 29.76 0.0
16 16:15 SW 9 G 17 10.00 Fair CLR 100.4 60.8 27% 101 29.77 0.0
16 15:55 S 8 0.00 NULL NULL 0 0 0% 29.77 0.0
Date Time (edt) Wind (mph) Vis. (mi.) Weather Sky Cond. Air Dwpt Max. Min. Relative Humidity Wind Chill (°F) Heat Index (°F) altimeter (in) sea level (mb) 1 hr 3 hr 6 hr
6 hour
Temperature (ºF) Pressure Precipitation (in)